Regional Weather Roundup
Issued by NWS Newport/Morehead, NC

Current Version | Previous Version | Text Only | Print | Product List | Glossary On
Versions: 1 2 3 4 5 6 7 8 9 10 11 12 13 14 15 16 17 18 19 20 21 22 23 24 25 26 27 28 29 30 31 32 33 34 35 36 37 38 39 40 41 42 43 44 45 46 47 48 49 50
000 ASUS42 KMHX 010413 RWRMHX WEATHER ROUNDUP FOR EASTERN NORTH CAROLINA NATIONAL WEATHER SERVICE NEWPORT/MOREHEAD CITY NC 1200 AM EDT SUN MAY 01 2016 NOTE: "FAIR" INDICATES FEW OR NO CLOUDS BELOW 12,000 FEET WITH NO SIGNIFICANT WEATHER AND/OR OBSTRUCTIONS TO VISIBILITY NCZ015>017-031-032-045>047-102-103-010500- NORTH COAST CITY SKY/WX TMP DP RH WIND PRES REMARKS EDENTON CLOUDY 58 56 93 E7 30.19F ELIZABETH CITY MOCLDY 55 52 89 E9 30.19F KITTY HAWK MOCLDY 54 53 95 NE7 30.19S MANTEO NOT AVBL $$ NCZ045>047-081-094-103-104-010500- CENTRAL COAST CITY SKY/WX TMP DP RH WIND PRES REMARKS FRISCO PTCLDY 58 55 90 NE7 30.17F SWANQUARTER NOT AVBL $$ NCZ095-097-098-100-101-010500- SOUTHERN COAST CITY SKY/WX TMP DP RH WIND PRES REMARKS BEAUFORT CLOUDY 62 58 86 E9 30.16F CEDAR ISLAND NOT AVBL JACKSONVILLE MOCLDY 61 56 83 E10 30.14F PINEY ISLAND NOT AVBL WILMINGTON MOCLDY 63 59 87 E9 30.13F $$ NCZ011>013-027>030-043-044-078>080-089-090>093-098-010500- COASTAL PLAIN CITY SKY/WX TMP DP RH WIND PRES REMARKS AHOSKIE MOCLDY 55 51 86 E5 30.19F CLINTON CLOUDY 63 59 87 E3 30.13F ELIZABETHTOWN MOCLDY 63 59 89 E3 30.13S GOLDSBORO CLOUDY 63 63 100 E9 30.13F GREENVILLE CLOUDY 59 54 82 E5 30.19S HAVELOCK CLOUDY 61 57 87 E6 30.17F KENANSVILLE CLOUDY 61 56 83 E6 30.16F KINSTON CLOUDY 61 56 84 E6 30.17S NEW BERN CLOUDY 60 56 86 E7 30.17F RICHLANDS CLOUDY 60 57 89 E7 30.15F ROCKY MOUNT CLOUDY 59 53 80 E6 30.16F WASHINGTON MOCLDY 56 53 88 E5 30.18S WHITEVILLE MOCLDY 62 58 87 E5 30.12S $$ AMZ130-135-150-152-154-156-158-170-250-252-270-ANZ085-086-088-633-658-670-010500- MARINE OBSERVATIONS STATION/POSITION TIME TEMP WIND PRES WAVE SWELL AIR SEA DIR/SP/G HT/PER HT/PER (UTC) (F) (DEG/KT/KT) (MB) (FT/S) (FT/S) CHESAPEAKE LIGHT 0400 53 90/ 16/ 17 1022.8 64 E VA BEACH 0350 54 53 50/ 8/ 10 1022.1 6/10 5/10 DUCK 0300 67 N/A 2 E DUCK 0311 58 N/A 5/10 2/11 OREGON INLET 0300 62 N/A 13E OREGON INLT 0400 55 N/A 6/10 5/10 HATTERAS CG 0300 69 N/A DIAMOND BUOY 0350 64 74 30/ 14/ 16 1021.1 5/ 9 3/ 9 CAPE LOOKOUT 0400 62 60/ 11/ 13 1020.9 BEAUFORT LAB 0300 68 N/A 30 SE NEW RVR IN 0325 68 N/A 4/ 9 2/11 27 SE WRIGHTSVLE 0308 68 70 90/ 16/ 19 1020.2 5 SE WRIGHTSVLE 0308 65 68 90/ 16/ 21 1021.1 225 S CAPE HAT 0350 71 80/ 16/ 17 1020.3 5/ 8 3/ 8 41 SE CHARLESTON 0350 75 73 110/ 17/ 21 1017.8 4/ 4 2/11 $$

USA.gov is the U.S. government's official web portal to all federal, state and local government web resources and services.